Погода в Гулике

Россия / Амурская область     53°44′53″N   127°05′55″E
темп.,
°C
ветер,
м/с
пор.,
м/с
влажн.,
%
обл.,
%
осадки,
мм/ч
давл.,
гПа
погр.,
м
14 апреля, ср
ср1400:00−12с34925 0.0 100954
03:00−13с34926 0.0 100951
06:00−14с22895 0.0 100933
09:00−5сз12582 0.0 1008446
12:00−3зюз224798 0.0 10071609
15:00−1зсз2343100 0.0 10061753
18:00−2ссз35566 0.0 1006401
21:00−8ссз22855 0.0 100817
15 апреля, чт
чт1500:00−9ссз22895 0.0 100824
03:00−10ссз118974 0.0 100822
06:00−11ссз11925 0.0 100921
09:00−2зсз246014 0.0 1009573
12:00+2ссз254391 0.0 10081722
15:00+3ссз2443100 0.0 10091654
18:00+2з1162100 0.1 101028
21:00−2ссв1177100 0.1 101311
16 апреля, пт
пт1600:00−4всв2283100 0.0 101447
03:00−5ссв1182100 0.0 101412
06:00−5ссв1181100 0.0 101516
09:000св1262100 0.0 1015252
12:00+3ссв4544100 0.0 10141303
15:00+4св4540100 0.0 10141366
18:00+2ссв365344 0.0 1014369
21:00−3ссв33752 0.0 101648
17 апреля, сб
сб1700:00−4с23752 0.0 101546
03:00−5с11752 0.0 101518
06:00−5с11742 0.0 101515
09:00+1юз11475 0.0 1014263
12:00+5юз23415 0.0 1012738
15:00+7ююз34385 0.0 10101257
18:00+6ююв25531 0.0 1009124
21:00+1в22630 0.0 101011
18 апреля, вс
вс1800:00−1в23665 0.0 101042
03:00−1в346158 0.0 100980
06:00−1в25565 0.0 100993
09:00+4юв34435 0.0 1008422
12:00+9юв23391 0.0 1007793
15:00+11ссз22415 0.0 10071204
18:00+6с69664 0.0 1010597
21:00+1с411665 0.0 1014385